Date String (YYYY-MM-DD hh:mm:ss) UTC,Instrument flags,Ambient pressure (hPa),Sample flow (lpm),Bypass flow (lpm),Sample temperature (°C),Ambient temperature (°C),ASC tube jacket temperature (°C),LED temperature (°C),Box temperature (°C),Sample RH (%),Span deviation,Mass concentration (μg/m³),Mass concentration (μg/m³),Mass concentration (μg/m³)
DateTimeUTC,F1_M11,P_M11,Q1_M11,Q2_M11,T1_M11,T2_M11,T3_M11,T4_M11,T5_M11,U1_M11,ZSPAN_M11,X0_M11,X2_M11,X1_M11
2021-12-16 02:00:00,,0816.3,4.99,0.00,21.3,20.6,00.0,30.4,22.9,07.5,0000.0,0002.20,0000.62,0000.25
2021-12-16 02:01:00,,0816.3,5.00,0.00,21.2,20.6,00.0,30.4,22.8,07.6,0000.0,0003.23,0000.61,0000.25
2021-12-16 02:02:00,,0816.3,4.99,0.00,21.3,21.0,00.0,30.4,22.9,07.5,0000.0,0003.22,0000.64,0000.25
2021-12-16 02:03:00,,0816.3,5.01,0.00,21.4,21.9,00.0,30.5,23.3,07.5,0000.0,0003.03,0000.64,0000.26
2021-12-16 02:04:00,,0816.4,5.01,0.00,21.6,22.7,00.0,30.5,23.6,07.4,0000.0,0003.59,0000.62,0000.25
2021-12-16 02:05:00,,0816.4,4.99,0.00,21.7,22.7,00.0,30.6,23.8,07.3,0000.0,0003.66,0000.59,0000.25
2021-12-16 02:06:00,,0816.4,5.00,0.00,21.8,22.4,00.0,30.6,23.7,07.3,0000.0,0004.76,0000.57,0000.24
2021-12-16 02:07:00,,0816.3,5.01,0.00,21.8,22.2,00.0,30.6,23.6,07.3,0000.0,0005.01,0000.53,0000.23
2021-12-16 02:08:00,,0816.4,4.99,0.00,21.8,21.9,00.0,30.6,23.5,07.3,0000.0,0005.20,0000.56,0000.24
2021-12-16 02:09:00,,0816.4,5.01,0.00,21.8,21.8,00.0,30.6,23.5,07.3,0000.0,0005.32,0000.58,0000.24
2021-12-16 02:10:00,,0816.3,5.00,0.00,21.8,21.7,00.0,30.7,23.5,07.3,0000.0,0005.28,0000.57,0000.24
2021-12-16 02:11:00,,0816.3,4.99,0.00,21.8,21.6,00.0,30.7,23.4,07.3,0000.0,0005.17,0000.57,0000.24
2021-12-16 02:12:00,,0816.4,5.00,0.00,21.7,21.5,00.0,30.7,23.4,07.3,0000.0,0003.93,0000.59,0000.25
2021-12-16 02:13:00,,0816.3,5.02,0.00,21.7,21.4,00.0,30.7,23.4,07.3,0000.0,0004.03,0000.59,0000.25
2021-12-16 02:14:00,,0816.3,4.99,0.00,21.7,21.3,00.0,30.7,23.3,07.3,0000.0,0004.14,0000.59,0000.25
2021-12-16 02:15:00,,0816.3,5.01,0.00,21.7,21.2,00.0,30.7,23.2,07.3,0000.0,0003.90,0000.59,0000.25
2021-12-16 02:16:00,,0816.4,5.00,0.00,21.6,21.1,00.0,30.7,23.1,07.3,0000.0,0003.92,0000.60,0000.26
2021-12-16 02:17:00,,0816.3,4.99,0.00,21.6,21.0,00.0,30.7,23.2,07.3,0000.0,0003.00,0000.63,0000.26
2021-12-16 02:18:00,,0816.4,5.01,0.00,21.6,21.0,00.0,30.7,23.2,07.3,0000.0,0002.69,0000.63,0000.27
2021-12-16 02:19:00,,0816.6,4.99,0.00,21.6,21.0,00.0,30.7,23.2,07.3,0000.0,0002.45,0000.59,0000.27
2021-12-16 02:20:00,,0816.4,5.00,0.00,21.6,20.9,00.0,30.6,23.2,07.3,0000.0,0002.52,0000.55,0000.26
2021-12-16 02:21:00,,0816.3,4.99,0.00,21.6,20.9,00.0,30.6,23.2,07.4,0000.0,0002.87,0000.59,0000.27
2021-12-16 02:22:00,,0816.5,5.01,0.00,21.6,20.9,00.0,30.6,23.1,07.4,0000.0,0002.98,0000.62,0000.28
2021-12-16 02:23:00,,0816.6,5.00,0.00,21.5,20.9,00.0,30.6,23.1,07.4,0000.0,0004.14,0000.67,0000.28
2021-12-16 02:24:00,,0816.3,5.00,0.00,21.5,20.8,00.0,30.6,23.0,07.5,0000.0,0004.07,0000.68,0000.28
2021-12-16 02:25:00,,0816.3,4.99,0.00,21.4,20.7,00.0,30.6,22.9,07.5,0000.0,0003.87,0000.69,0000.28
2021-12-16 02:26:00,,0816.4,5.01,0.00,21.4,20.7,00.0,30.6,22.9,07.5,0000.0,0003.50,0000.71,0000.28
2021-12-16 02:27:00,,0816.5,4.99,0.00,21.4,20.7,00.0,30.5,22.9,07.4,0000.0,0003.40,0000.71,0000.28
2021-12-16 02:28:00,,0816.4,4.99,0.00,21.4,21.3,00.0,30.6,23.2,07.4,0000.0,0003.33,0000.73,0000.29
2021-12-16 02:29:00,,0816.3,5.00,0.00,21.6,22.3,00.0,30.6,23.5,07.4,0000.0,0003.63,0000.74,0000.30
2021-12-16 02:30:00,,0816.5,4.99,0.00,21.8,22.8,00.0,30.7,23.8,07.3,0000.0,0003.75,0000.77,0000.29
2021-12-16 02:31:00,,0816.5,5.00,0.00,21.9,22.6,00.0,30.7,23.8,07.3,0000.0,0003.63,0000.77,0000.30
2021-12-16 02:32:00,,0816.5,4.99,0.00,21.8,22.3,00.0,30.7,23.6,07.3,0000.0,0003.21,0000.74,0000.30
2021-12-16 02:33:00,,0816.5,5.01,0.00,21.8,21.9,00.0,30.7,23.5,07.3,0000.0,0003.18,0000.73,0000.30
2021-12-16 02:34:00,,0816.7,5.01,0.00,21.7,21.6,00.0,30.7,23.3,07.4,0000.0,0002.06,0000.68,0000.30
2021-12-16 02:35:00,,0817.1,5.00,0.00,21.6,21.4,00.0,30.7,23.2,07.4,0000.0,0001.98,0000.66,0000.30
2021-12-16 02:36:00,,0817.0,5.00,0.00,21.6,21.2,00.0,30.7,23.1,07.4,0000.0,0002.16,0000.65,0000.29
2021-12-16 02:37:00,,0817.1,5.01,0.00,21.6,21.1,00.0,30.7,23.2,07.3,0000.0,0003.18,0000.60,0000.29
2021-12-16 02:38:00,,0816.9,5.01,0.00,21.6,21.0,00.0,30.7,23.2,07.4,0000.0,0004.37,0000.62,0000.29
2021-12-16 02:39:00,,0817.1,4.99,0.00,21.5,21.0,00.0,30.7,23.2,07.4,0000.0,0004.45,0000.60,0000.29
2021-12-16 02:40:00,,0817.4,5.01,0.00,21.5,20.9,00.0,30.6,23.1,07.4,0000.0,0004.23,0000.62,0000.29
2021-12-16 02:41:00,,0817.2,5.00,0.00,21.5,20.8,00.0,30.6,23.0,07.4,0000.0,0004.98,0000.64,0000.30
2021-12-16 02:42:00,,0817.0,5.00,0.00,21.4,20.8,00.0,30.6,22.9,07.5,0000.0,0005.99,0000.64,0000.30
2021-12-16 02:43:00,,0817.0,4.99,0.00,21.4,20.7,00.0,30.6,22.9,07.5,0000.0,0006.12,0000.67,0000.31
2021-12-16 02:44:00,,0817.0,5.00,0.00,21.3,20.6,00.0,30.6,22.9,07.5,0000.0,0006.09,0000.67,0000.31
2021-12-16 02:45:00,,0817.1,5.01,0.00,21.3,20.6,00.0,30.5,22.9,07.5,0000.0,0005.99,0000.64,0000.32
2021-12-16 02:46:00,,0817.2,5.00,0.00,21.3,20.7,00.0,30.5,22.9,07.5,0000.0,0006.07,0000.66,0000.32
2021-12-16 02:47:00,,0817.1,5.01,0.00,21.3,20.8,00.0,30.5,23.0,07.6,0000.0,0005.96,0000.71,0000.33
2021-12-16 02:48:00,,0817.2,4.99,0.00,21.5,21.7,00.0,30.6,23.3,07.6,0000.0,0004.88,0000.74,0000.33
2021-12-16 02:49:00,,0817.1,5.00,0.00,21.6,22.6,00.0,30.6,23.6,07.6,0000.0,0003.75,0000.74,0000.33
2021-12-16 02:50:00,,0817.4,5.01,0.00,21.8,22.9,00.0,30.6,23.8,07.5,0000.0,0003.64,0000.76,0000.33
2021-12-16 02:51:00,,0817.3,5.01,0.00,21.8,22.5,00.0,30.7,23.8,07.5,0000.0,0003.61,0000.77,0000.33
2021-12-16 02:52:00,,0817.2,5.00,0.00,21.8,22.2,00.0,30.7,23.6,07.5,0000.0,0002.73,0000.78,0000.33
2021-12-16 02:53:00,,0817.1,4.98,0.00,21.8,21.9,00.0,30.7,23.5,07.5,0000.0,0001.87,0000.78,0000.33
2021-12-16 02:54:00,,0817.3,5.01,0.00,21.7,21.6,00.0,30.7,23.3,07.6,0000.0,0001.84,0000.76,0000.32
2021-12-16 02:55:00,,0817.0,5.00,0.00,21.7,21.4,00.0,30.7,23.3,07.6,0000.0,0001.95,0000.78,0000.32
2021-12-16 02:56:00,,0817.1,4.98,0.00,21.6,21.1,00.0,30.7,23.2,07.6,0000.0,0002.14,0000.85,0000.33
2021-12-16 02:57:00,,0817.1,5.01,0.00,21.6,21.0,00.0,30.7,23.2,07.6,0000.0,0002.02,0000.82,0000.33
2021-12-16 02:58:00,,0817.3,4.99,0.00,21.6,20.9,00.0,30.6,23.1,07.7,0000.0,0001.96,0000.80,0000.33
2021-12-16 02:59:00,,0817.5,4.99,0.00,21.5,20.8,00.0,30.6,23.1,07.7,0000.0,0001.97,0000.80,0000.33
